Powrót do katalogu

QIANFAN-37

AktywnyŁącznośćPO
NORAD 62238·PAYLOAD·🇨🇳 China

Wystrzelony Dec 5, 2024 z Taiyuan Satellite Launch Center

Loading…

Następne Przeloty (najbliższe 24 godziny)

TLE

ŚwieżeSource: Space-Track

Epoka: Sep 14, 2026, 13:56 UTC

1 62238U 24232B   26257.58072613  .00000105  00000-0  14382-3 0  9995
2 62238  89.0153  13.6285 0002083  87.5043 272.6347 13.51029591136416

Śledź QIANFAN-37 w czasie rzeczywistym z AllMySat

Download on the App Store